M0SDM Weather Reports


time (UTC)temp
C
wind
direction
speed
KPH
gust
KPH
rain 1hr
cm
rain 24hr
cm
rain mn
cm
humidity
%
barometer
mb
20260508065521 10 166 0.0 3.2 0.00 0.00 0.00 90 1016.2
20260508064021 9 169 0.0 3.2 0.00 0.00 0.00 93 1016.2
20260508062521 9 157 1.6 3.2 0.00 0.00 0.00 93 1016.0
20260508061021 8 173 0.0 3.2 0.00 0.00 0.00 93 1016.1
20260508055521 8 159 0.0 3.2 0.00 0.00 0.00 94 1016.2
20260508054021 8 137 0.0 3.2 0.00 0.00 0.00 94 1016.2
20260508052521 8 178 0.0 3.2 0.00 0.00 0.00 94 1015.9
20260508051021 8 163 0.0 3.2 0.00 0.00 0.00 93 1015.6
20260508045521 8 152 0.0 3.2 0.00 0.00 0.00 93 1015.8
20260508044021 8 139 0.0 3.2 0.00 0.00 0.00 93 1015.7
20260508042521 8 141 0.0 3.2 0.00 0.00 0.00 93 1016.0
20260508041021 8 149 0.0 3.2 0.00 0.00 0.00 93 1015.6
20260508035521 8 147 1.6 3.2 0.00 0.00 0.00 92 1015.5
20260508034021 8 153 0.0 6.4 0.00 0.00 0.00 92 1015.4
20260508032521 8 137 0.0 3.2 0.00 0.00 0.00 92 1015.6
20260508031021 8 181 0.0 3.2 0.00 0.00 0.00 92 1015.5
20260508025521 8 172 0.0 6.4 0.00 0.00 0.00 92 1015.5
20260508024021 8 171 1.6 6.4 0.00 0.00 0.00 91 1015.5
20260508022521 8 187 1.6 6.4 0.00 0.00 0.00 91 1015.6
20260508021021 8 172 3.2 6.4 0.00 0.00 0.00 91 1015.3
20260508015521 8 190 1.6 6.4 0.00 0.00 0.00 90 1015.4
20260508014021 8 160 0.0 6.4 0.00 0.00 0.00 89 1015.4
20260508012521 8 155 0.0 3.2 0.00 0.00 0.00 89 1015.4
20260508011021 8 126 0.0 3.2 0.00 0.00 0.00 88 1015.3
20260508005521 8 196 0.0 6.4 0.00 0.00 0.00 88 1015.4
20260508004021 9 200 0.0 3.2 0.00 0.00 0.00 87 1015.3
20260508002521 9 112 0.0 6.4 0.00 0.00 0.00 87 1015.5
20260508001021 9 193 1.6 3.2 0.00 0.00 0.00 86 1015.6
20260507235521 9 198 1.6 6.4 0.00 0.00 0.00 86 1015.7
20260507234021 9 148 0.0 6.4 0.00 0.00 0.00 85 1015.4
20260507232521 9 126 0.0 3.2 0.00 0.00 0.00 85 1015.6
20260507231021 9 113 0.0 6.4 0.00 0.00 0.00 83 1015.4
20260507225521 10 122 3.2 6.4 0.00 0.00 0.00 82 1015.5
20260507224021 10 167 0.0 6.4 0.00 0.00 0.00 82 1015.6
20260507222521 10 153 0.0 6.4 0.00 0.00 0.00 81 1015.7
20260507221021 10 162 1.6 6.4 0.00 0.00 0.00 80 1015.3
20260507215521 10 163 1.6 6.4 0.00 0.00 0.00 80 1015.3
20260507214021 10 88 3.2 3.2 0.00 0.00 0.00 80 1015.2
20260507212521 10 166 0.0 6.4 0.00 0.00 0.00 79 1015.3
20260507211021 10 112 0.0 3.2 0.00 0.00 0.00 76 1015.1
20260507205521 10 131 1.6 6.4 0.00 0.00 0.00 75 1015.1
20260507204021 11 116 0.0 3.2 0.00 0.00 0.00 73 1014.8
20260507202521 11 147 0.0 3.2 0.00 0.00 0.00 72 1014.6
20260507201021 11 130 0.0 3.2 0.00 0.00 0.00 71 1014.4
20260507195521 11 101 0.0 3.2 0.00 0.00 0.00 70 1014.3
20260507194021 12 157 0.0 3.2 0.00 0.00 0.00 69 1013.9
20260507192521 12 117 0.0 3.2 0.00 0.00 0.00 68 1013.7
20260507191021 12 136 1.6 3.2 0.00 0.00 0.00 66 1013.6
20260507185521 12 146 0.0 6.4 0.00 0.00 0.00 65 1013.6
20260507184021 12 77 1.6 6.4 0.00 0.00 0.00 63 1013.4
20260507182521 13 86 0.0 3.2 0.00 0.00 0.00 61 1013.0
20260507181021 13 186 1.6 6.4 0.00 0.00 0.00 60 1013.0
20260507175521 13 104 1.6 9.7 0.00 0.00 0.00 59 1012.9
20260507174021 13 165 1.6 9.7 0.00 0.00 0.00 57 1012.8
20260507172521 15 154 1.6 9.7 0.00 0.00 0.00 55 1013.0
20260507171021 15 134 1.6 9.7 0.00 0.00 0.00 56 1012.6
20260507165521 14 160 3.2 9.7 0.00 0.00 0.00 55 1012.7
20260507164021 14 196 3.2 6.4 0.00 0.00 0.00 55 1012.8
20260507162521 14 110 4.8 6.4 0.00 0.00 0.00 54 1012.7
20260507161021 15 139 1.6 3.2 0.00 0.00 0.00 51 1012.5
20260507155521 15 184 1.6 6.4 0.00 0.00 0.00 50 1012.9
20260507154021 15 159 0.0 3.2 0.00 0.00 0.00 51 1013.2
20260507152521 15 150 0.0 3.2 0.00 0.00 0.00 56 1013.3
20260507151021 14 139 1.6 6.4 0.00 0.00 0.00 57 1013.4
20260507145521 13 203 3.2 6.4 0.00 0.00 0.00 59 1013.4
20260507144021 13 186 3.2 6.4 0.00 0.00 0.00 59 1013.6
20260507142522 13 173 0.0 6.4 0.00 0.00 0.00 59 1013.0
20260507141021 14 174 1.6 6.4 0.00 0.00 0.00 57 1013.3
20260507135521 14 154 1.6 6.4 0.00 0.00 0.00 57 1013.2
20260507134021 15 180 1.6 6.4 0.00 0.00 0.00 52 1013.1
20260507132521 16 199 0.0 6.4 0.00 0.00 0.00 52 1013.1
20260507131021 15 127 3.2 6.4 0.00 0.00 0.00 55 1013.2
20260507125521 14 118 0.0 11.3 0.00 0.00 0.00 56 1013.2
20260507124021 16 166 1.6 9.7 0.00 0.00 0.00 51 1013.4
20260507122521 16 197 3.2 6.4 0.00 0.00 0.00 53 1013.3
20260507121021 16 167 0.0 6.4 0.00 0.00 0.00 54 1013.6
20260507115521 15 196 1.6 11.3 0.00 0.00 0.00 57 1014.0
20260507114021 14 168 1.6 6.4 0.00 0.00 0.00 59 1014.2
20260507112521 14 217 3.2 6.4 0.00 0.00 0.00 62 1014.3
20260507111021 14 171 3.2 6.4 0.00 0.00 0.00 61 1014.7
20260507105521 13 153 3.2 6.4 0.00 0.00 0.00 65 1014.8
20260507104021 13 104 3.2 6.4 0.00 0.00 0.00 65 1015.2
20260507102521 12 176 1.6 6.4 0.00 0.00 0.00 66 1015.4
20260507101021 11 126 1.6 6.4 0.00 0.00 0.00 73 1015.6
20260507095521 11 178 3.2 6.4 0.00 0.00 0.00 74 1015.6
20260507094021 11 179 0.0 6.4 0.00 0.00 0.00 75 1015.8
20260507092521 11 134 3.2 6.4 0.00 0.00 0.00 74 1015.7
20260507091021 10 169 1.6 6.4 0.00 0.00 0.00 77 1016.0
20260507090550 11 190 1.6 6.4 0.00 0.00 0.00 75 1015.9
20260507085521 11 190 1.6 6.4 0.00 0.00 0.00 75 1015.9
20260507084021 10 176 0.0 6.4 0.00 0.00 0.00 77 1016.2
20260507082521 10 165 3.2 6.4 0.00 0.00 0.00 78 1016.3
20260507081021 10 180 3.2 6.4 0.00 0.00 0.00 77 1016.7
20260507075521 10 153 1.6 6.4 0.00 0.00 0.00 78 1016.5
20260507074021 9 194 3.2 6.4 0.00 0.00 0.00 82 1016.8
20260507072521 9 182 0.0 6.4 0.00 0.00 0.00 83 1016.8
20260507071021 8 169 0.0 3.2 0.00 0.00 0.00 85 1016.5